Weather History for KSET - December, 2012

Change the Weather History Date:

Wednesday, December 12, 2012

  Actual Average (KSTL) Record (KSTL)
Temperature  
Mean Temperature 36 °F 35 °F  
Max Temperature 50 °F 43 °F 70 °F (1991)
Min Temperature 23 °F 28 °F -5 °F (1962)
Degree Days  
Heating Degree Days 28 30  
Month to date heating degree days 333  
Since 1 July heating degree days 1159  
Cooling Degree Days 0 0  
Month to date cooling degree days 0  
Year to date cooling degree days 1646  
Moisture  
Dew Point 24 °F    
Average Humidity 73    
Maximum Humidity 96    
Minimum Humidity 32    
Precipitation  
Precipitation 0.00 in 0.09 in 1.31 in (1972)
Month to date precipitation 1.19  
Year to date precipitation 39.31  
Snow  
Snow 0.00 in 0.20 in 4.40 in (2010)
Month to date snowfall 1.3  
Since 1 July snowfall 2.0  
Snow Depth -    
Sea Level Pressure  
Sea Level Pressure 30.28 in    
Wind  
Wind Speed 2 mph (SE)    
Max Wind Speed 12 mph    
Max Gust Speed -    
Visibility 9 miles    
Events      
T = Trace of Precipitation, MM = Missing Value Source: NWS Daily Summary

Daily Weather History Graph

Daily Weather History Graph

Search for Another Location

Airport or City:

Trip Planner

Search our weather history database for the weather conditions in past years. The results will help you decide how hot, cold, wet, or windy it might be!

Date:

Astronomy

Dec. 12, 2012 Rise Set
Actual Time 7:11 AM CST 4:39 PM CST
Civil Twilight 6:41 AM CST 5:09 PM CST
Nautical Twilight 6:08 AM CST 5:43 PM CST
Astronomical Twilight 5:35 AM CST 6:15 PM CST
Moon 6:16 AM CST (12/12) 4:16 PM CST (12/12)
Length of Visible Light 10h 28m
Length of Day
9h 28m
Waning Crescent, 1% of the Moon is Illuminated
Dec 12
Waning Crescent
Dec 13
New
Dec 19
First Quarter
Dec 28
Full
Jan 4
Last Quarter

Hourly Weather History & Observations

Time (CST) Temp. Windchill Dew Point Humidity Pressure Visibility Wind Dir Wind Speed Gust Speed Precip Events Conditions
12:54 AM 24.1 °F - 21.9 °F 91% 30.24 in 10.0 mi Calm Calm - N/A   Clear
1:41 AM 24.8 °F - 21.2 °F 86% 30.23 in 1.8 mi Calm Calm - N/A   Clear
1:50 AM 24.8 °F - 23.0 °F 93% 30.24 in 3.0 mi Calm Calm - N/A   Clear
1:54 AM 25.0 °F - 23.0 °F 92% 30.25 in 4.0 mi Calm Calm - N/A   Clear
2:54 AM 24.1 °F - 23.0 °F 96% 30.25 in 7.0 mi Calm Calm - N/A   Clear
3:54 AM 24.1 °F - 21.0 °F 88% 30.25 in 10.0 mi Calm Calm - N/A   Clear
4:54 AM 24.1 °F - 21.0 °F 88% 30.27 in 10.0 mi Calm Calm - N/A   Clear
5:54 AM 23.0 °F - 19.9 °F 88% 30.29 in 10.0 mi Calm Calm - N/A   Clear
6:54 AM 23.0 °F - 19.9 °F 88% 30.31 in 10.0 mi Calm Calm - N/A   Clear
7:54 AM 25.0 °F - 23.0 °F 92% 30.32 in 8.0 mi Calm Calm - N/A   Clear
8:54 AM 30.0 °F - 27.0 °F 88% 30.34 in 9.0 mi Calm Calm - N/A   Clear
9:54 AM 34.0 °F - 25.0 °F 70% 30.35 in 10.0 mi Calm Calm - N/A   Clear
10:54 AM 39.0 °F 36.8 °F 26.1 °F 60% 30.34 in 10.0 mi SE 3.5 mph - N/A   Clear
11:54 AM 43.0 °F 41.3 °F 30.0 °F 60% 30.32 in 10.0 mi ESE 3.5 mph - N/A   Clear
12:54 PM 46.9 °F - 28.0 °F 48% 30.30 in 10.0 mi Variable 3.5 mph - N/A   Clear
1:54 PM 48.9 °F - 21.0 °F 33% 30.27 in 10.0 mi South 8.1 mph - N/A   Clear
2:54 PM 50.0 °F - 21.0 °F 32% 30.26 in 10.0 mi South 6.9 mph - N/A   Clear
3:54 PM 46.9 °F - 30.9 °F 54% 30.27 in 10.0 mi SE 6.9 mph - N/A   Clear
4:54 PM 39.9 °F 33.9 °F 27.0 °F 60% 30.27 in 10.0 mi SE 9.2 mph - N/A   Clear
5:54 PM 39.0 °F 33.4 °F 26.1 °F 60% 30.27 in 10.0 mi SE 8.1 mph - N/A   Clear
6:54 PM 36.0 °F 29.0 °F 27.0 °F 70% 30.28 in 10.0 mi SE 9.2 mph - N/A   Clear
7:54 PM 36.0 °F 28.0 °F 27.0 °F 70% 30.27 in 10.0 mi SSE 11.5 mph - N/A   Clear
8:54 PM 35.1 °F 28.6 °F 27.0 °F 72% 30.29 in 10.0 mi SSE 8.1 mph - N/A   Clear
9:54 PM 36.0 °F 29.0 °F 26.1 °F 67% 30.30 in 10.0 mi SSE 9.2 mph - N/A   Clear
10:54 PM 35.1 °F 28.6 °F 25.0 °F 67% 30.29 in 10.0 mi SSE 8.1 mph - N/A   Clear
11:54 PM 28.9 °F 23.9 °F 21.9 °F 75% 30.32 in 10.0 mi North 4.6 mph - N/A   Clear